﻿測定場所 (Monitoring sites),日付 (Measurement date),時間 (Measurement time),線量率 最大値 (max) μGy/h,線量率 最小値 (min) μGy/h,線量率 平均値 (average) μGy/h,
江戸川 (Edogawa),2024-01-21,23:01～24:00,0.0416,0.0363,0.0389,
江戸川 (Edogawa),2024-01-21,22:01～23:00,0.0423,0.0368,0.0390,
江戸川 (Edogawa),2024-01-21,21:01～22:00,0.0417,0.0371,0.0392,
江戸川 (Edogawa),2024-01-21,20:01～21:00,0.0416,0.0374,0.0393,
江戸川 (Edogawa),2024-01-21,19:01～20:00,0.0418,0.0367,0.0393,
江戸川 (Edogawa),2024-01-21,18:01～19:00,0.0416,0.0363,0.0391,
江戸川 (Edogawa),2024-01-21,17:01～18:00,0.0423,0.0370,0.0393,
江戸川 (Edogawa),2024-01-21,16:01～17:00,0.0418,0.0371,0.0395,
江戸川 (Edogawa),2024-01-21,15:01～16:00,0.0426,0.0382,0.0404,
江戸川 (Edogawa),2024-01-21,14:01～15:00,0.0457,0.0394,0.0421,
江戸川 (Edogawa),2024-01-21,13:01～14:00,0.0512,0.0398,0.0453,
江戸川 (Edogawa),2024-01-21,12:01～13:00,0.0544,0.0467,0.0501,
江戸川 (Edogawa),2024-01-21,11:01～12:00,0.0548,0.0475,0.0507,
江戸川 (Edogawa),2024-01-21,10:01～11:00,0.0574,0.0488,0.0529,
江戸川 (Edogawa),2024-01-21,09:01～10:00,0.0600,0.0543,0.0574,
江戸川 (Edogawa),2024-01-21,08:01～09:00,0.0628,0.0574,0.0602,
江戸川 (Edogawa),2024-01-21,07:01～08:00,0.0632,0.0586,0.0607,
江戸川 (Edogawa),2024-01-21,06:01～07:00,0.0628,0.0579,0.0607,
江戸川 (Edogawa),2024-01-21,05:01～06:00,0.0626,0.0534,0.0580,
江戸川 (Edogawa),2024-01-21,04:01～05:00,0.0580,0.0516,0.0556,
江戸川 (Edogawa),2024-01-21,03:01～04:00,0.0599,0.0534,0.0568,
江戸川 (Edogawa),2024-01-21,02:01～03:00,0.0624,0.0551,0.0587,
江戸川 (Edogawa),2024-01-21,01:01～02:00,0.0642,0.0561,0.0597,
江戸川 (Edogawa),2024-01-21,00:01～01:00,0.0614,0.0537,0.0572,
江戸川 (Edogawa),2024-01-20,23:01～24:00,0.0560,0.0457,0.0497,
江戸川 (Edogawa),2024-01-20,22:01～23:00,0.0520,0.0438,0.0470,
江戸川 (Edogawa),2024-01-20,21:01～22:00,0.0497,0.0413,0.0453,
江戸川 (Edogawa),2024-01-20,20:01～21:00,0.0454,0.0407,0.0429,
江戸川 (Edogawa),2024-01-20,19:01～20:00,0.0449,0.0409,0.0426,
江戸川 (Edogawa),2024-01-20,18:01～19:00,0.0453,0.0395,0.0418,
江戸川 (Edogawa),2024-01-20,17:01～18:00,0.0443,0.0397,0.0418,
江戸川 (Edogawa),2024-01-20,16:01～17:00,0.0452,0.0388,0.0420,
江戸川 (Edogawa),2024-01-20,15:01～16:00,0.0478,0.0420,0.0450,
江戸川 (Edogawa),2024-01-20,14:01～15:00,0.0475,0.0410,0.0443,
江戸川 (Edogawa),2024-01-20,13:01～14:00,0.0481,0.0418,0.0441,
江戸川 (Edogawa),2024-01-20,12:01～13:00,0.0457,0.0403,0.0434,
江戸川 (Edogawa),2024-01-20,11:01～12:00,0.0433,0.0388,0.0408,
江戸川 (Edogawa),2024-01-20,10:01～11:00,0.0432,0.0384,0.0409,
江戸川 (Edogawa),2024-01-20,09:01～10:00,0.0433,0.0387,0.0408,
江戸川 (Edogawa),2024-01-20,08:01～09:00,0.0430,0.0388,0.0407,
江戸川 (Edogawa),2024-01-20,07:01～08:00,0.0428,0.0387,0.0406,
江戸川 (Edogawa),2024-01-20,06:01～07:00,0.0433,0.0382,0.0408,
江戸川 (Edogawa),2024-01-20,05:01～06:00,0.0431,0.0388,0.0406,
江戸川 (Edogawa),2024-01-20,04:01～05:00,0.0444,0.0381,0.0407,
江戸川 (Edogawa),2024-01-20,03:01～04:00,0.0431,0.0382,0.0407,
江戸川 (Edogawa),2024-01-20,02:01～03:00,0.0426,0.0389,0.0408,
江戸川 (Edogawa),2024-01-20,01:01～02:00,0.0437,0.0379,0.0406,
江戸川 (Edogawa),2024-01-20,00:01～01:00,0.0429,0.0382,0.0407,
江戸川 (Edogawa),2024-01-19,23:01～24:00,0.0433,0.0387,0.0407,
江戸川 (Edogawa),2024-01-19,22:01～23:00,0.0439,0.0379,0.0406,
江戸川 (Edogawa),2024-01-19,21:01～22:00,0.0430,0.0388,0.0405,
江戸川 (Edogawa),2024-01-19,20:01～21:00,0.0437,0.0381,0.0402,
江戸川 (Edogawa),2024-01-19,19:01～20:00,0.0421,0.0384,0.0403,
江戸川 (Edogawa),2024-01-19,18:01～19:00,0.0434,0.0381,0.0405,
江戸川 (Edogawa),2024-01-19,17:01～18:00,0.0429,0.0384,0.0407,
江戸川 (Edogawa),2024-01-19,16:01～17:00,0.0424,0.0375,0.0403,
江戸川 (Edogawa),2024-01-19,15:01～16:00,0.0429,0.0383,0.0406,
江戸川 (Edogawa),2024-01-19,14:01～15:00,0.0431,0.0388,0.0408,
江戸川 (Edogawa),2024-01-19,13:01～14:00,0.0431,0.0394,0.0412,
江戸川 (Edogawa),2024-01-19,12:01～13:00,0.0443,0.0382,0.0414,
江戸川 (Edogawa),2024-01-19,11:01～12:00,0.0429,0.0382,0.0408,
江戸川 (Edogawa),2024-01-19,10:01～11:00,0.0438,0.0385,0.0411,
江戸川 (Edogawa),2024-01-19,09:01～10:00,0.0438,0.0385,0.0414,
江戸川 (Edogawa),2024-01-19,08:01～09:00,0.0436,0.0398,0.0416,
江戸川 (Edogawa),2024-01-19,07:01～08:00,0.0447,0.0398,0.0420,
江戸川 (Edogawa),2024-01-19,06:01～07:00,0.0446,0.0395,0.0417,
江戸川 (Edogawa),2024-01-19,05:01～06:00,0.0447,0.0397,0.0421,
江戸川 (Edogawa),2024-01-19,04:01～05:00,0.0440,0.0401,0.0420,
江戸川 (Edogawa),2024-01-19,03:01～04:00,0.0444,0.0389,0.0421,
江戸川 (Edogawa),2024-01-19,02:01～03:00,0.0445,0.0391,0.0418,
江戸川 (Edogawa),2024-01-19,01:01～02:00,0.0443,0.0394,0.0416,
江戸川 (Edogawa),2024-01-19,00:01～01:00,0.0438,0.0398,0.0418,
江戸川 (Edogawa),2024-01-18,23:01～24:00,0.0438,0.0390,0.0416,
江戸川 (Edogawa),2024-01-18,22:01～23:00,0.0444,0.0382,0.0412,
江戸川 (Edogawa),2024-01-18,21:01～22:00,0.0435,0.0384,0.0408,
江戸川 (Edogawa),2024-01-18,20:01～21:00,0.0441,0.0383,0.0407,
江戸川 (Edogawa),2024-01-18,19:01～20:00,0.0434,0.0387,0.0408,
江戸川 (Edogawa),2024-01-18,18:01～19:00,0.0425,0.0378,0.0405,
江戸川 (Edogawa),2024-01-18,17:01～18:00,0.0444,0.0389,0.0407,
江戸川 (Edogawa),2024-01-18,16:01～17:00,0.0419,0.0383,0.0403,
江戸川 (Edogawa),2024-01-18,15:01～16:00,0.0428,0.0386,0.0407,
江戸川 (Edogawa),2024-01-18,14:01～15:00,0.0428,0.0304,0.0394,
江戸川 (Edogawa),2024-01-17,13:01～14:00,0.0424,0.0379,0.0401,
江戸川 (Edogawa),2024-01-17,12:01～13:00,0.0435,0.0366,0.0406,
江戸川 (Edogawa),2024-01-17,11:01～12:00,0.0434,0.0372,0.0404,
江戸川 (Edogawa),2024-01-17,10:01～11:00,0.0432,0.0370,0.0397,
江戸川 (Edogawa),2024-01-17,09:01～10:00,0.0430,0.0354,0.0396,
江戸川 (Edogawa),2024-01-17,08:01～09:00,0.0424,0.0365,0.0394,
江戸川 (Edogawa),2024-01-17,07:01～08:00,0.0426,0.0368,0.0393,
江戸川 (Edogawa),2024-01-17,06:01～07:00,0.0425,0.0363,0.0391,
江戸川 (Edogawa),2024-01-17,05:01～06:00,0.0426,0.0363,0.0393,
江戸川 (Edogawa),2024-01-17,04:01～05:00,0.0417,0.0367,0.0393,
江戸川 (Edogawa),2024-01-17,03:01～04:00,0.0423,0.0365,0.0391,
江戸川 (Edogawa),2024-01-17,02:01～03:00,0.0421,0.0361,0.0389,
江戸川 (Edogawa),2024-01-17,01:01～02:00,0.0420,0.0366,0.0392,
江戸川 (Edogawa),2024-01-17,00:01～01:00,0.0425,0.0362,0.0391,
江戸川 (Edogawa),2024-01-16,23:01～24:00,0.0421,0.0363,0.0392,
江戸川 (Edogawa),2024-01-16,22:01～23:00,0.0422,0.0370,0.0393,
江戸川 (Edogawa),2024-01-16,21:01～22:00,0.0420,0.0368,0.0394,
江戸川 (Edogawa),2024-01-16,20:01～21:00,0.0420,0.0367,0.0393,
江戸川 (Edogawa),2024-01-16,19:01～20:00,0.0418,0.0367,0.0391,
江戸川 (Edogawa),2024-01-16,18:01～19:00,0.0414,0.0360,0.0391,
江戸川 (Edogawa),2024-01-16,17:01～18:00,0.0423,0.0364,0.0391,
江戸川 (Edogawa),2024-01-16,16:01～17:00,0.0438,0.0366,0.0392,
江戸川 (Edogawa),2024-01-16,15:01～16:00,0.0419,0.0366,0.0393,
江戸川 (Edogawa),2024-01-16,14:01～15:00,0.0427,0.0360,0.0388,
江戸川 (Edogawa),2024-01-16,13:01～14:00,0.0431,0.0364,0.0392,
江戸川 (Edogawa),2024-01-16,12:01～13:00,0.0416,0.0368,0.0390,
江戸川 (Edogawa),2024-01-16,11:01～12:00,0.0418,0.0362,0.0392,
江戸川 (Edogawa),2024-01-16,10:01～11:00,0.0414,0.0359,0.0392,
江戸川 (Edogawa),2024-01-16,09:01～10:00,0.0432,0.0367,0.0394,
江戸川 (Edogawa),2024-01-16,08:01～09:00,0.0421,0.0366,0.0392,
江戸川 (Edogawa),2024-01-16,07:01～08:00,0.0424,0.0365,0.0392,
江戸川 (Edogawa),2024-01-16,06:01～07:00,0.0422,0.0370,0.0396,
江戸川 (Edogawa),2024-01-16,05:01～06:00,0.0434,0.0365,0.0395,
江戸川 (Edogawa),2024-01-16,04:01～05:00,0.0421,0.0369,0.0395,
江戸川 (Edogawa),2024-01-16,03:01～04:00,0.0428,0.0365,0.0396,
江戸川 (Edogawa),2024-01-16,02:01～03:00,0.0427,0.0363,0.0396,
江戸川 (Edogawa),2024-01-16,01:01～02:00,0.0438,0.0368,0.0398,
江戸川 (Edogawa),2024-01-16,00:01～01:00,0.0426,0.0367,0.0396,
江戸川 (Edogawa),2024-01-15,23:01～24:00,0.0423,0.0365,0.0396,
江戸川 (Edogawa),2024-01-15,22:01～23:00,0.0426,0.0370,0.0398,
江戸川 (Edogawa),2024-01-15,21:01～22:00,0.0435,0.0369,0.0399,
江戸川 (Edogawa),2024-01-15,20:01～21:00,0.0427,0.0368,0.0400,
江戸川 (Edogawa),2024-01-15,19:01～20:00,0.0435,0.0374,0.0401,
江戸川 (Edogawa),2024-01-15,18:01～19:00,0.0438,0.0380,0.0401,
江戸川 (Edogawa),2024-01-15,17:01～18:00,0.0431,0.0372,0.0404,
江戸川 (Edogawa),2024-01-15,16:01～17:00,0.0439,0.0370,0.0403,
江戸川 (Edogawa),2024-01-15,15:01～16:00,0.0434,0.0374,0.0404,
江戸川 (Edogawa),2024-01-15,14:01～15:00,0.0445,0.0373,0.0407,
江戸川 (Edogawa),2024-01-15,13:01～14:00,0.0452,0.0372,0.0407,
江戸川 (Edogawa),2024-01-15,12:01～13:00,0.0446,0.0380,0.0410,
江戸川 (Edogawa),2024-01-15,11:01～12:00,0.0447,0.0390,0.0412,
江戸川 (Edogawa),2024-01-15,10:01～11:00,0.0448,0.0371,0.0412,
江戸川 (Edogawa),2024-01-15,09:01～10:00,0.0448,0.0376,0.0411,
江戸川 (Edogawa),2024-01-15,08:01～09:00,0.0448,0.0377,0.0411,
江戸川 (Edogawa),2024-01-15,07:01～08:00,0.0437,0.0382,0.0406,
江戸川 (Edogawa),2024-01-15,06:01～07:00,0.0442,0.0378,0.0410,
江戸川 (Edogawa),2024-01-15,05:01～06:00,0.0434,0.0369,0.0407,
江戸川 (Edogawa),2024-01-15,04:01～05:00,0.0445,0.0383,0.0408,
江戸川 (Edogawa),2024-01-15,03:01～04:00,0.0438,0.0374,0.0407,
江戸川 (Edogawa),2024-01-15,02:01～03:00,0.0439,0.0376,0.0404,
江戸川 (Edogawa),2024-01-15,01:01～02:00,0.0432,0.0383,0.0406,
江戸川 (Edogawa),2024-01-15,00:01～01:00,0.0434,0.0366,0.0401,
